Reflectivity
-20 -20 -20 -20 -20 -20 -20 -20 -20 -17 15 33 29 30 -5 -20 -20 -20 -20 -20 -20 -20 -20 -20 -20 -20 -20 -20 -20 -20 -20 -20 -20 -15 10 -11 -20 -14 17 24 -6 1 -20 -20 -18 -20 -20 -20 -20
-20 -20 -20 -20 -20 -20 -20 -20 -20 -14 5 35 7 17 -20 -20 -20 -20 -20 -20 -20 -20 -20 -20 -20 -20 -20 -20 -20 -20 -20 21 4 -18 -1 9 3 -20 -8 21 -10 1 12 -20 -16 14 -20 -20 -20
-20 -20 -20 -20 -20 -19 -14 -20 -20 -20 -10 31 14 -4 -20 -20 -20 -20 -20 -20 -20 -20 -20 -20 -20 -20 -20 -20 -20 -20 -20 24 -20 -20 -5 -14 -3 13 19 -20 -19 -19 -20 -20 -20 -20 -20 -20 -20
-20 -20 -20 -20 -20 -20 -20 -20 -20 -20 7 12 6 -20 -20 -20 -20 -20 -20 -20 -20 -20 -20 -20 -20 -20 -20 -20 -20 -20 -20 15 11 -20 22 24 9 25 -20 -20 -13 8 -20 -20 -19 -20 -20 -20 -20
-20 -20 -20 -20 -20 -20 -20 -20 -20 -11 -18 -15 15 -20 -20 -20 -20 -20 -20 -20 -20 -20 -20 -20 -20 -20 -20 -20 -20 -20 -20 -20 -20 6 11 18 6 9 4 -20 -20 -20 -20 -20 -20 -20 -20 -20 -20
-20 -20 -20 -20 -20 -20 -20 -20 -20 -20 -14 38 30 -20 -20 -20 -20 -20 -20 -20 -20 -20 -20 -20 -20 -20 -20 -20 -20 -20 -20 -20 -20 -1 -14 -13 -10 -20 -14 -20 -20 -20 -20 -20 -20 -20 -20 -20 -20
-20 -20 -20 -20 -20 -20 -20 -20 -20 1 -13 22 -12 -19 -20 -20 -20 -20 -20 -20 -20 -20 -20 -20 -13 -20 -20 -20 -20 -20 7 -20 -18 11 10 -13 -20 -20 -20 -20 -20 -20 -20 -20 -20 -20 -20 -20 -4
-20 -20 -20 -20 -20 -20 -19 -20 -19 -20 -20 -15 26 16 -20 -20 -20 -20 -20 -20 -20 -20 -20 -20 -20 -20 -20 -20 -20 -20 -20 -20 -20 -20 -20 -14 -4 -20 -20 -20 -20 -20 -20 -20 -20 -20 -20 -20 -0
-20 -20 -20 -20 -20 -13 -13 -20 -20 -20 -20 -20 -20 38 35 -20 -20 -20 -20 -20 -20 -20 -20 -20 -20 -20 -20 -20 -20 -20 -20 -20 -20 -20 -20 -20 -20 -20 -20 -20 -20 -20 -20 -20 -20 -20 -20 -20 -20
-20 -20 -20 -20 -20 -20 -20 -20 -7 -16 -20 -20 -15 29 17 -14 -19 -20 -20 -20 -20 -20 -20 -20 -20 -20 -20 -20 -20 -20 -20 -20 -20 -20 -20 -20 -20 -20 -20 -20 -20 -20 -20 -20 -20 -20 -20 -20 -20
-20 -20 -20 -20 -20 -20 -20 -20 -20 -11 -20 -20 -19 9 12 -7 -20 -20 -20 -20 -20 -20 -20 -20 -20 -20 -20 -20 -20 -20 -20 -20 -20 -20 -20 -20 -20 -20 -20 -20 -20 -20 -20 -20 -20 -20 -20 -16 -20
-20 -20 -20 -20 -20 -20 -20 -20 -20 2 -20 -20 -20 -18 -20 -20 -20 -20 -20 -20 -20 -20 -20 -20 -20 -20 -20 -20 -20 -20 -20 -20 -20 -20 -20 -20 -20 -20 -20 -20 -20 -20 -20 -20 -20 -20 -13 7 -18
-20 -20 -20 -20 -20 -20 -20 -20 -20 -11 -16 -20 -20 -20 -20 -20 -20 -20 -20 -20 -20 -20 -20 -20 -20 -20 -20 -20 -20 -20 -20 -20 -20 -20 -20 -20 -20 -20 -20 -20 -20 -20 -20 -20 -20 -20 -20 -20 -19
-20 -20 -20 -20 -20 -20 -20 -20 -20 -19 -19 -20 -20 -20 -20 -20 -20 -20 -20 -20 -20 -20 -20 -20 -20 -20 -20 -20 -20 -20 -20 -20 -20 -20 -20 -20 -20 -20 -20 -20 -20 -20 -20 5 10 -19 -13 -20 -20
-20 -20 -20 -20 -20 -20 -20 -20 -20 -20 -6 -20 -20 -20 -11 -20 -20 -20 -20 -20 -20 -20 -20 -20 -20 -20 -20 -20 -20 -20 -20 -20 -20 -20 -20 -20 -20 -20 -20 -20 -20 2 -20 9 -20 -20 -20 -20 -20
-20 -20 -20 -20 -20 -20 -20 -20 -20 -20 -20 -20 -20 -20 -20 -20 -20 -20 -20 -20 -20 -20 -20 -20 -20 -20 -20 -20 -20 -20 -20 -20 -20 -20 -20 -20 -20 -20 -20 -20 12 2 -13 -20 -20 -20 -20 -20 -20
-20 -20 -20 -20 -20 -20 -20 -20 -20 -20 -20 -20 -20 -20 -20 -20 -20 -20 -20 -8 -16 -20 -20 -20 -20 -20 -20 -20 -20 -20 -20 -20 -20 -20 -20 -20 -20 -20 -20 -20 -20 -20 -20 -20 -20 -20 -20 -20 -20
-20 -20 -20 -20 -20 -20 -20 -20 -20 -20 -20 -20 -20 -20 -20 -20 -20 -20 -20 -20 -17 -16 -20 -20 -20 -20 -20 -20 -20 -20 -20 -20 -20 -20 -20 -20 1 -14 -14 -20 8 -20 -20 -20 -20 -20 -20 -20 -20
-20 -20 -20 -20 -20 -20 -20 -20 -20 -20 -20 -20 -20 -20 -20 -20 -20 -20 23 -20 -20 -19 -19 -20 -20 -20 -20 -20 -20 -20 -20 -20 2 -20 -20 -20 7 -20 -20 -20 -20 -20 -20 -20 -20 -20 -20 -20 -20
-20 -20 -20 -20 -20 -20 -20 -20 -20 -20 -20 -20 -20 -20 -20 -20 -20 -20 2 -18 -20 -20 -15 -20 -20 -20 -20 -20 -20 -20 -20 -20 -18 -19 -20 -20 -20 -20 -20 -20 -20 -20 -20 -20 -20 -20 -20 -20 -20
-20 -20 -20 -20 -20 -20 -20 -20 -20 -20 -20 -20 -20 -20 -20 -20 -20 -20 -20 -20 -20 -11 -19 -20 -20 -20 -20 -20 -20 -20 -20 -20 -4 -3 -20 -20 -20 -20 -20 -20 -20 -20 -20 -20 -20 -20 -20 -20 -20
-20 -20 -20 -20 -20 -20 -20 -20 -20 -20 -20 -20 -20 -20 -20 -20 -20 -20 -20 -20 -20 -18 -5 7 -20 -20 -20 -20 -20 -20 -20 -20 -20 -20 -20 -20 -20 -20 -20 -20 -20 -20 -20 -20 -20 -20 -20 -20 -20
-20 -20 -20 -20 -20 -20 -20 -20 -20 -20 -20 -20 -20 -20 -20 -20 -20 -20 -20 -20 -20 -20 -13 -19 -5 -20 -20 -20 -20 -20 -20 -20 -20 -20 -20 -20 -20 -20 -20 -20 -20 -20 -20 -20 -20 -20 -20 -20 -20
-20 -20 -20 -20 -20 -20 -20 -20 -20 -20 -20 -20 -20 -20 -20 -20 -20 -20 -20 -20 -20 -20 -20 -10 -20 -20 -20 -20 -20 -20 -20 -20 -20 -20 -20 -20 -20 -20 -20 -20 -20 -20 -20 -20 -20 -20 -20 -20 -20
-20 -20 -20 -20 -20 -20 -20 -20 -20 -20 -20 -20 -20 -20 -20 -20 -20 -20 -20 -20 -6 -20 -20 -20 -20 -20 -20 -20 -20 -20 -20 -20 -20 -20 -20 -20 -20 -20 -20 -20 -20 -20 -20 -20 -20 -20 -20 -20 -20
-20 -20 -20 -20 -20 -20 -20 -20 -20 -20 -20 -20 -20 -20 -20 -20 -20 -20 -20 -20 -1 24 -20 23 -20 -20 -18 -17 -10 -20 -20 -20 -20 -20 -20 -20 -20 -20 -20 -20 -20 -20 -20 -20 -20 -20 -20 -20 -20
-19 -0 -20 -20 -20 -20 -20 -20 -20 -20 -20 -20 -20 -20 -20 -20 -20 -20 -20 -20 28 26 -4 -20 -20 -20 -20 -18 -20 -19 -20 -20 -20 -20 -17 -20 -20 -20 -20 -20 -20 -20 -20 -20 -20 -20 -20 -20 -20
-1 0 -20 -8 -20 -20 -20 -20 -20 -20 -20 -20 -20 -20 -20 -20 -20 -20 -20 -20 7 -3 -15 6 6 -15 -16 -20 -20 -20 -20 -20 -20 -20 -20 -16 -20 -20 -17 -3 -14 -10 14 -20 -20 -20 -20 -20 -20
14 1 4 -6 -5 -20 -20 -20 -20 -20 -20 -20 -20 -20 -20 -20 -20 -20 4 17 -7 -11 5 14 27 12 -8 -13 -20 -20 -20 22 -4 -20 -20 -20 17 17 -1 29 1 30 13 5 -8 -12 -3 -20 -20
8 -9 -1 -20 -20 -20 -20 -20 -20 -20 -20 -20 -20 -20 -20 -20 -20 -20 -20 -20 -10 -3 5 37 48 35 26 26 29 29 27 25 26 22 -20 -20 20 19 15 18 5 -2 -1 -20 13 -8 -20 -20 -20
Wind_Speed
6 6 2 1 3 2 4 7 3 2 7 3 11 13 10 7 5 6 10 21 23 18 14 16 18 17 17 19 19 18 18 17 18 15 18 20 21 22 21 17 12 15 16 16 16 16 15 15 14
4 5 2 2 3 3 5 8 11 7 4 10 11 11 15 11 11 20 12 18 20 18 13 14 18 17 16 18 19 18 19 18 19 17 18 20 20 19 18 15 12 15 15 16 16 14 13 11 11
3 2 1 5 5 11 4 9 12 11 22 22 7 4 7 13 20 9 23 22 19 17 14 14 18 16 16 17 19 17 18 16 18 16 17 18 18 20 16 12 10 15 15 15 13 11 9 8 10
2 3 5 1 11 14 10 4 10 8 5 17 12 7 6 9 5 17 25 23 20 17 13 14 17 16 16 17 17 16 17 18 17 19 16 18 20 21 16 12 15 15 15 13 11 9 7 7 7
1 2 3 5 10 11 16 8 13 12 5 8 8 11 6 15 27 27 25 21 21 17 12 13 17 15 16 17 17 16 16 16 19 17 19 19 19 18 17 15 14 12 12 11 9 8 7 5 5
2 3 1 7 12 17 19 21 17 12 17 3 11 14 7 17 23 21 23 22 20 18 12 13 18 15 15 15 17 14 15 17 18 19 19 19 19 18 16 14 13 11 10 9 7 5 5 4 3
4 2 6 9 14 20 23 14 8 4 18 23 16 9 10 11 14 23 22 21 20 19 13 11 12 13 14 14 16 13 12 17 18 18 18 19 17 17 16 14 12 11 9 8 8 6 3 4 8
5 2 9 10 12 21 23 14 5 6 13 23 12 3 15 15 21 22 21 20 19 16 13 11 11 9 8 9 15 14 13 14 17 18 18 16 16 15 14 13 11 10 9 8 7 4 1 1 10
4 7 12 14 15 21 21 6 2 0 6 7 8 9 9 16 24 23 21 17 16 14 13 11 11 9 8 7 11 13 14 12 15 15 16 12 7 8 10 9 11 10 9 7 5 3 5 12 8
10 10 20 10 15 17 21 6 13 5 9 6 12 20 19 19 22 24 21 17 18 17 14 11 12 11 10 8 6 6 9 6 5 7 9 6 6 6 7 7 10 9 8 6 4 2 6 7 6
7 17 13 12 23 24 24 14 11 8 9 22 26 28 24 19 20 20 20 19 18 19 14 12 12 12 9 9 6 4 3 3 5 7 5 6 5 4 4 3 2 3 4 2 2 2 3 7 8
14 14 16 17 21 20 17 9 11 7 6 23 30 30 25 21 19 19 20 19 20 19 17 14 14 11 11 7 6 7 6 4 3 7 7 5 4 5 5 4 5 4 3 4 3 3 7 8 11
18 17 19 21 23 24 16 17 8 9 7 24 24 23 22 19 19 18 18 18 18 18 18 16 15 9 11 10 7 7 7 7 7 7 6 5 7 6 5 4 4 4 4 4 4 7 7 8 11
9 16 19 17 19 23 19 17 4 10 17 22 25 23 19 19 21 17 21 19 15 18 18 17 14 13 12 10 9 8 7 6 8 6 7 10 7 5 5 5 4 4 4 3 5 7 8 8 8
15 16 15 17 19 12 7 15 10 10 14 23 23 21 20 18 17 19 23 23 19 16 16 18 14 10 12 10 10 9 9 7 6 6 7 8 6 7 7 5 4 3 9 8 9 9 8 8 8
17 11 16 23 9 15 8 18 12 12 12 16 21 19 18 14 18 15 22 24 22 19 17 18 14 9 10 7 8 10 7 9 7 5 5 6 7 8 5 8 7 6 7 8 8 8 7 6 7
13 19 19 11 11 6 15 16 13 11 11 16 20 21 19 17 13 12 20 25 24 23 19 19 15 10 9 7 6 7 8 9 7 6 5 6 7 7 6 7 5 7 5 6 7 4 9 7 6
16 15 10 11 15 11 11 15 13 12 12 12 19 21 21 20 18 14 18 24 23 23 22 21 15 10 9 6 5 4 4 4 8 7 5 6 5 6 6 6 6 7 7 5 7 8 5 7 6
13 14 13 9 10 16 19 14 15 13 7 12 18 21 21 23 19 14 10 21 21 23 23 20 21 15 9 7 5 4 6 3 5 8 8 8 6 7 7 4 6 6 7 6 6 5 8 4 8
13 19 19 9 20 13 18 18 22 14 16 10 13 23 24 22 20 14 17 10 22 25 25 21 22 20 13 10 5 4 5 3 5 6 7 8 8 8 7 6 5 6 5 7 7 6 4 3 5
20 20 20 18 13 13 8 17 16 12 14 15 11 23 26 27 25 20 23 20 21 26 27 24 24 22 18 17 7 4 4 3 4 7 6 6 8 7 8 7 6 6 5 6 5 6 8 7 1
19 25 22 21 14 12 9 14 15 17 18 11 13 13 26 26 26 25 26 24 21 23 22 23 23 23 19 20 16 14 12 9 7 7 5 7 7 8 7 7 7 7 5 6 5 5 5 6 6
24 15 18 22 18 11 18 3 7 10 7 10 15 10 27 25 27 28 27 27 21 23 23 23 21 22 21 17 18 13 13 9 9 8 12 8 6 8 7 7 8 7 5 6 7 5 6 4 5
23 16 18 15 15 14 15 7 7 7 11 12 14 11 25 28 28 29 27 26 18 21 21 19 20 20 20 17 18 16 15 13 12 12 10 8 5 5 7 8 7 7 6 7 6 6 7 6 5
16 17 12 12 12 12 15 6 8 13 7 7 20 18 22 27 25 22 21 19 14 17 21 20 22 20 19 17 10 15 18 17 14 14 11 10 5 4 6 7 7 6 6 7 6 7 6 6 5
14 18 11 9 6 13 14 6 6 4 6 6 3 13 17 23 22 23 20 15 11 14 19 18 20 20 20 20 10 12 13 11 11 14 12 10 9 7 7 7 7 8 7 7 6 4 4 5 3
10 14 10 7 5 2 4 5 4 6 8 11 14 17 12 8 10 15 17 19 10 7 9 12 12 14 16 17 8 7 7 8 10 11 13 10 9 9 8 8 7 7 7 8 8 4 6 6 6
13 8 3 2 6 5 5 7 7 8 7 8 13 15 18 19 17 12 7 2 5 7 1 8 11 12 15 17 12 8 9 8 9 11 13 11 9 12 11 8 5 5 6 7 8 5 5 6 4
14 13 11 6 3 4 3 6 7 15 16 13 13 16 17 17 14 11 10 7 10 6 8 4 4 13 12 13 14 12 8 7 7 10 10 14 12 12 11 9 10 8 7 6 6 6 6 6 4
15 18 17 6 8 5 7 7 9 17 12 12 13 15 15 19 15 10 12 12 9 10 11 15 9 12 6 7 9 10 10 10 10 11 12 13 13 10 11 11 6 8 7 6 6 7 6 7 5
Wind_Direction
153 166 197 31 40 184 232 256 98 119 110 254 348 276 98 42 111 158 106 124 123 125 129 119 115 110 106 103 105 110 116 119 125 115 108 114 110 112 116 116 107 115 116 114 113 109 105 106 100
193 187 292 250 144 277 268 233 90 72 46 276 249 258 58 67 75 120 113 127 128 126 123 121 115 111 111 109 109 107 115 121 122 124 119 116 114 113 109 112 129 108 110 111 106 105 108 107 100
8 300 106 171 209 231 252 226 132 142 114 268 282 316 72 116 132 125 130 131 130 118 121 123 116 113 112 109 112 111 113 115 114 118 122 123 122 116 121 126 118 114 109 104 112 112 115 108 102
164 322 310 185 254 261 245 116 143 173 221 182 216 57 72 109 102 133 133 134 121 114 121 122 116 116 114 112 109 110 112 116 111 113 117 121 124 124 141 131 109 111 114 116 113 119 108 92 103
278 288 236 228 249 264 267 233 163 173 177 26 171 115 81 93 118 132 135 127 119 118 124 123 116 119 117 119 114 116 114 117 117 113 117 119 120 118 112 109 109 105 102 108 109 99 96 98 108
293 160 274 238 253 262 267 267 161 182 132 292 161 122 109 126 130 138 119 123 124 123 128 126 120 120 118 118 114 117 119 116 120 120 117 116 112 110 106 105 106 107 108 105 98 103 122 128 118
185 315 227 251 262 276 267 285 202 223 160 179 133 111 140 130 128 119 119 121 123 123 127 125 121 123 118 117 115 118 115 118 121 120 120 119 117 116 117 117 115 112 112 118 125 135 155 156 95
174 197 267 257 256 262 271 281 215 109 55 86 91 191 155 147 120 122 120 122 123 123 129 127 120 121 114 121 117 118 118 120 121 123 121 120 121 122 123 123 127 134 135 136 131 128 213 291 65
224 241 248 249 254 267 279 310 279 198 119 98 139 82 181 139 120 122 121 125 125 128 131 135 131 129 117 116 126 119 120 122 124 125 126 123 127 130 132 138 139 139 140 142 130 84 347 16 55
207 232 237 249 264 269 278 274 283 147 106 106 136 175 163 143 137 131 135 138 140 138 141 149 140 139 138 130 120 117 132 129 135 137 141 135 139 144 138 147 152 156 163 145 123 69 19 27 66
247 238 244 246 246 259 273 294 285 141 141 142 137 143 154 151 144 140 141 146 145 143 147 152 146 151 142 140 140 134 132 144 155 157 159 148 142 140 138 144 153 167 180 118 115 114 44 53 78
246 246 242 255 262 273 279 304 319 159 177 150 147 151 157 154 153 153 145 150 149 150 150 149 154 158 143 150 151 157 157 162 167 178 171 148 140 153 163 170 183 182 155 146 165 122 116 98 97
229 234 243 245 253 260 270 274 249 231 114 139 141 150 158 156 157 162 148 144 153 151 154 151 164 149 157 159 158 165 169 165 169 179 184 169 159 170 176 177 180 180 151 176 124 120 107 94 102
232 240 241 243 239 251 252 266 292 219 126 140 148 159 163 166 164 163 154 159 150 152 158 152 167 154 165 166 161 170 167 171 170 183 182 171 169 165 182 176 175 190 181 125 127 117 108 100 111
251 254 261 250 242 243 232 270 256 241 147 155 159 161 167 172 171 169 161 162 160 151 155 156 161 160 171 172 164 167 171 168 169 176 172 176 167 179 200 169 152 146 130 129 117 108 92 92 96
254 261 253 250 237 236 169 256 263 244 161 148 162 162 167 178 187 175 164 161 162 164 148 159 164 169 171 172 156 167 157 165 173 172 169 177 201 177 152 135 139 141 119 122 118 114 109 107 107
245 239 243 251 234 219 203 237 252 242 163 159 166 169 172 180 195 177 162 162 164 165 158 160 165 165 157 162 143 150 155 164 174 170 173 177 169 152 117 138 158 113 107 108 119 115 128 118 113
223 234 243 231 235 249 232 231 236 240 217 183 174 173 172 179 193 179 157 162 165 164 163 154 161 159 154 157 135 121 157 146 161 162 169 154 166 131 128 131 122 111 116 114 122 129 121 133 126
224 242 231 257 239 218 237 223 223 229 200 224 171 175 176 178 180 179 173 164 162 164 164 158 161 163 153 166 146 146 177 155 176 162 164 142 131 112 112 125 126 117 138 154 142 124 127 67 120
233 236 247 247 234 208 230 231 214 205 226 201 187 179 179 176 174 171 177 167 162 168 166 162 167 167 161 172 161 151 169 156 160 151 158 144 136 126 129 136 134 110 122 127 130 135 109 102 149
225 233 245 240 267 249 212 229 212 218 204 225 205 184 178 175 176 171 179 192 172 171 169 166 168 170 166 170 162 146 163 115 125 145 147 147 138 142 132 154 143 121 133 138 137 138 130 151 192
230 230 242 257 249 254 242 242 206 199 207 216 226 187 183 179 180 176 178 185 173 172 170 168 168 172 173 172 176 175 179 177 152 157 147 149 142 146 140 143 138 131 141 138 144 144 141 137 160
242 234 233 242 254 257 273 155 230 155 213 229 233 197 180 179 180 183 181 180 167 169 174 176 168 171 173 179 184 178 174 167 148 149 148 151 147 145 145 137 136 131 131 145 152 152 146 153 151
239 247 258 250 240 246 243 166 265 192 204 235 238 211 177 184 182 182 183 179 169 171 171 172 171 178 180 175 189 186 169 158 154 154 154 160 154 149 148 141 145 148 147 163 167 172 165 161 161
228 226 236 243 242 237 229 205 226 217 203 225 223 227 182 175 179 177 175 177 167 164 178 178 176 176 179 190 200 186 169 163 155 158 154 155 151 142 164 144 150 152 149 158 156 162 167 166 164
237 229 210 217 201 230 236 195 239 228 94 34 61 217 179 176 165 168 163 154 177 186 177 184 178 176 176 187 190 196 177 168 164 160 155 162 166 159 155 151 150 156 153 154 150 141 148 144 162
283 237 199 219 224 188 195 287 23 124 75 64 42 68 67 107 108 144 148 157 134 177 197 164 174 178 178 183 172 173 176 155 169 159 157 156 151 154 150 150 159 155 150 143 138 160 163 168 170
26 347 297 166 189 220 259 202 212 134 124 87 78 68 75 73 63 82 88 108 135 109 225 174 158 172 182 179 176 175 173 153 147 143 151 145 144 147 141 137 130 155 144 147 146 164 168 170 168
11 17 345 314 152 205 256 261 1 173 156 129 98 85 90 87 77 59 72 48 180 133 127 348 249 172 175 185 176 165 130 131 128 132 140 138 142 147 137 137 157 170 156 142 142 150 144 146 142
83 33 14 360 326 311 188 262 335 99 78 86 83 85 90 97 97 81 67 73 135 155 171 176 272 258 222 186 162 162 150 150 153 143 137 138 142 139 144 137 170 141 168 138 147 159 151 147 165